K5DLF-13 Weather Reports


time (UTC)temp
F
wind
direction
speed
knots
gust
knots
rain 1hr
in
rain 24hr
in
rain mn
in
humidity
%
barometer
mb
20260504192459 82 138 2.6 3.5 0.00 0.00 0.00 63 1011.3
20260504191959 82 138 2.6 6.1 0.00 0.00 0.00 65 1011.4
20260504191459 82 214 2.6 4.3 0.00 0.00 0.00 65 1011.3
20260504190959 81 146 2.6 4.3 0.00 0.00 0.00 65 1011.3
20260504190459 82 146 2.6 5.2 0.00 0.00 0.00 67 1011.5
20260504185959 82 147 2.6 7.0 0.00 0.00 0.00 65 1011.5
20260504185459 82 149 2.6 4.3 0.00 0.00 0.00 65 1011.5
20260504184959 82 147 3.5 7.0 0.00 0.00 0.00 63 1011.6
20260504184459 82 148 2.6 7.8 0.00 0.00 0.00 66 1011.5
20260504183959 82 149 2.6 5.2 0.00 0.00 0.00 65 1011.5
20260504183459 82 148 2.6 7.0 0.00 0.00 0.00 64 1011.6
20260504182959 82 148 3.5 6.1 0.00 0.00 0.00 65 1011.6
20260504182459 82 167 2.6 7.0 0.00 0.00 0.00 66 1011.8
20260504181959 82 174 2.6 7.8 0.00 0.00 0.00 67 1011.8
20260504181459 81 189 1.7 3.5 0.00 0.00 0.00 68 1012.0
20260504180959 81 189 2.6 6.1 0.00 0.00 0.00 65 1012.0
20260504180459 81 140 3.5 7.0 0.00 0.00 0.00 66 1012.1
20260504175959 81 171 3.5 5.2 0.00 0.00 0.00 66 1012.1
20260504175500 81 173 2.6 6.1 0.00 0.00 0.00 65 1012.2
20260504175000 81 162 2.6 7.0 0.00 0.00 0.00 66 1012.2
20260504174500 81 166 2.6 5.2 0.00 0.00 0.00 66 1012.3
20260504174000 80 167 2.6 6.1 0.00 0.00 0.00 67 1012.2
20260504173500 81 184 2.6 7.0 0.00 0.00 0.00 64 1012.5
20260504173000 82 209 1.7 3.5 0.00 0.00 0.00 64 1012.7
20260504172500 81 207 2.6 4.3 0.00 0.00 0.00 66 1012.6
20260504172000 81 148 2.6 7.0 0.00 0.00 0.00 66 1012.7
20260504171500 81 148 2.6 5.2 0.00 0.00 0.00 64 1012.7
20260504171000 80 148 2.6 8.7 0.00 0.00 0.00 65 1012.8
20260504170500 81 149 2.6 4.3 0.00 0.00 0.00 67 1012.7
20260504151000 76 213 1.7 5.2 0.00 0.00 0.00 71 1013.4
20260504150500 76 161 2.6 5.2 0.00 0.00 0.00 72 1013.5
20260504141000 67 198 0.0 0.0 0.00 0.00 0.00 95 1013.4
20260504140500 66 198 0.0 0.0 0.00 0.00 0.00 96 1013.4
20260504130500 59 202 0.0 0.0 0.00 0.00 0.00 95 1013.6
20260504110500 56 202 0.0 0.0 0.00 0.00 0.00 89 1013.3
20260504100500 57 202 0.0 0.0 0.00 0.00 0.00 89 1013.1
20260504082000 58 202 0.0 0.0 0.00 0.00 0.00 87 1014.2
20260504081501 58 202 0.0 0.0 0.00 0.00 0.00 86 1013.9
20260504081000 58 202 0.0 0.0 0.00 0.00 0.00 86 1014.0
20260504080501 58 202 0.0 0.0 0.00 0.00 0.00 86 1014.2
20260504050501 59 202 0.0 0.0 0.00 0.00 0.00 82 1015.9
20260504050001 59 202 0.0 0.0 0.00 0.00 0.00 81 1015.9
20260504045501 59 202 0.0 0.0 0.00 0.00 0.00 81 1016.0
20260504045001 59 202 0.0 0.0 0.00 0.00 0.00 82 1016.0
20260504044501 59 202 0.0 0.0 0.00 0.00 0.00 81 1016.1
20260504044001 59 202 0.0 0.0 0.00 0.00 0.00 80 1016.1
20260504043501 59 202 0.0 0.0 0.00 0.00 0.00 80 1016.0
20260504043001 59 202 0.0 0.0 0.00 0.00 0.00 79 1016.1
20260504042501 60 202 0.0 0.0 0.00 0.00 0.00 79 1016.1
20260504042001 60 202 0.0 0.0 0.00 0.00 0.00 78 1015.9
20260504041501 60 202 0.0 0.0 0.00 0.00 0.00 79 1015.9
20260504041001 60 202 0.0 0.0 0.00 0.00 0.00 80 1015.9
20260504040501 60 202 0.0 0.0 0.00 0.00 0.00 80 1015.8
20260504040001 60 202 0.0 0.0 0.00 0.00 0.00 80 1015.9
20260504035501 61 202 0.0 0.0 0.00 0.00 0.00 79 1016.0
20260504035001 61 202 0.0 0.0 0.00 0.00 0.00 79 1016.0
20260504034501 61 202 0.0 0.0 0.00 0.00 0.00 78 1016.0
20260504034001 61 202 0.0 0.0 0.00 0.00 0.00 77 1016.1
20260504033501 61 202 0.0 0.0 0.00 0.00 0.00 77 1016.1
20260504033001 62 202 0.0 0.0 0.00 0.00 0.00 77 1016.1
20260504032501 62 202 0.0 0.0 0.00 0.00 0.00 76 1016.0
20260504032001 62 202 0.0 0.0 0.00 0.00 0.00 77 1016.2
20260504031501 62 202 0.0 0.0 0.00 0.00 0.00 76 1016.0
20260504031001 62 202 0.0 0.0 0.00 0.00 0.00 76 1016.0
20260504030501 62 202 0.0 0.0 0.00 0.00 0.00 76 1016.0
20260504030001 63 202 0.0 0.0 0.00 0.00 0.00 75 1015.9
20260504025501 63 202 0.0 0.0 0.00 0.00 0.00 74 1016.0
20260504025001 63 202 0.0 0.0 0.00 0.00 0.00 74 1015.9
20260504024502 63 202 0.0 0.0 0.00 0.00 0.00 74 1016.0
20260504024001 63 202 0.0 0.0 0.00 0.00 0.00 73 1015.9
20260504023501 63 202 0.0 0.0 0.00 0.00 0.00 73 1015.9
20260504023001 64 202 0.0 0.0 0.00 0.00 0.00 73 1015.9
20260504022501 64 202 0.0 0.0 0.00 0.00 0.00 73 1015.9
20260504022001 64 202 0.0 0.0 0.00 0.00 0.00 73 1015.9
20260504021501 64 202 0.0 0.0 0.00 0.00 0.00 74 1015.9
20260504021001 64 202 0.0 0.0 0.00 0.00 0.00 74 1015.9
20260504020501 65 202 0.0 0.0 0.00 0.00 0.00 74 1015.9
20260504020001 65 202 0.0 0.0 0.00 0.00 0.00 74 1015.9
20260504015501 65 202 0.0 0.0 0.00 0.00 0.00 73 1016.0
20260504015001 66 202 0.0 0.0 0.00 0.00 0.00 73 1015.9
20260504014501 66 202 0.0 0.0 0.00 0.00 0.00 72 1015.9
20260504014001 66 202 0.0 0.0 0.00 0.00 0.00 71 1015.9
20260504013501 66 202 0.0 0.0 0.00 0.00 0.00 71 1016.0
20260504013001 67 202 0.0 0.0 0.00 0.00 0.00 71 1016.0
20260504012501 67 202 0.0 0.0 0.00 0.00 0.00 71 1016.0
20260504012001 67 202 0.0 0.0 0.00 0.00 0.00 70 1015.7
20260504011501 68 202 0.0 0.0 0.00 0.00 0.00 69 1015.7
20260504011001 68 202 0.0 0.0 0.00 0.00 0.00 68 1015.7
20260504010501 69 202 0.0 0.0 0.00 0.00 0.00 67 1015.9
20260504010001 69 202 0.0 0.0 0.00 0.00 0.00 67 1015.9
20260504005501 69 202 0.0 0.0 0.00 0.00 0.00 66 1015.9
20260504005001 69 202 0.0 0.0 0.00 0.00 0.00 65 1015.8
20260504004501 70 202 0.0 0.0 0.00 0.00 0.00 63 1015.8
20260504004001 70 202 0.0 0.0 0.00 0.00 0.00 62 1015.8
20260504003501 71 202 0.0 0.0 0.00 0.00 0.00 60 1015.8
20260504003001 71 202 0.9 1.7 0.00 0.00 0.00 60 1015.6
20260504002501 72 202 0.9 1.7 0.00 0.00 0.00 58 1015.7
20260504002001 72 202 1.7 2.6 0.00 0.00 0.00 57 1015.6
20260504001501 72 202 0.9 2.6 0.00 0.00 0.00 56 1015.7
20260504001001 73 202 0.9 1.7 0.00 0.00 0.00 56 1015.7
20260504000501 73 202 1.7 2.6 0.00 0.00 0.00 55 1015.8
20260504000001 73 202 1.7 2.6 0.00 0.00 0.00 53 1015.8
20260503235501 74 202 1.7 3.5 0.00 0.00 0.00 53 1015.7
20260503235001 74 202 1.7 3.5 0.00 0.00 0.00 52 1015.8
20260503234501 74 202 0.9 3.5 0.00 0.00 0.00 52 1015.9
20260503234001 74 203 1.7 2.6 0.00 0.00 0.00 52 1016.0
20260503233501 74 203 1.7 3.5 0.00 0.00 0.00 52 1016.1
20260503233001 74 203 1.7 3.5 0.00 0.00 0.00 51 1016.0
20260503232501 75 204 2.6 3.5 0.00 0.00 0.00 50 1016.0
20260503232001 75 205 1.7 3.5 0.00 0.00 0.00 50 1016.0
20260503231501 75 205 1.7 3.5 0.00 0.00 0.00 50 1016.1
20260503231001 75 205 1.7 3.5 0.00 0.00 0.00 49 1016.2
20260503230501 76 205 1.7 4.3 0.00 0.00 0.00 49 1016.2
20260503230001 76 206 1.7 4.3 0.00 0.00 0.00 50 1016.3
20260503225501 76 121 1.7 4.3 0.00 0.00 0.00 51 1016.3
20260503225001 77 117 1.7 5.2 0.00 0.00 0.00 49 1016.2
20260503224501 77 116 1.7 5.2 0.00 0.00 0.00 49 1016.5
20260503224001 77 115 1.7 3.5 0.00 0.00 0.00 51 1016.5
20260503223501 77 115 1.7 2.6 0.00 0.00 0.00 51 1016.5
20260503223002 77 115 1.7 6.1 0.00 0.00 0.00 48 1016.6
20260503222501 78 115 1.7 2.6 0.00 0.00 0.00 47 1016.6
20260503222001 78 115 1.7 3.5 0.00 0.00 0.00 46 1016.5
20260503221502 78 115 1.7 3.5 0.00 0.00 0.00 47 1016.6
20260503221002 78 115 1.7 2.6 0.00 0.00 0.00 48 1016.6
20260503220502 78 115 1.7 3.5 0.00 0.00 0.00 47 1016.5
20260503220002 79 115 1.7 3.5 0.00 0.00 0.00 46 1016.5
20260503215502 79 115 1.7 3.5 0.00 0.00 0.00 47 1016.6
20260503215002 80 115 1.7 3.5 0.00 0.00 0.00 48 1016.7
20260503214502 80 114 1.7 6.1 0.00 0.00 0.00 46 1016.7
20260503214002 80 114 1.7 3.5 0.00 0.00 0.00 45 1016.7
20260503213502 81 114 1.7 3.5 0.00 0.00 0.00 45 1016.7
20260503213002 81 107 0.9 3.5 0.00 0.00 0.00 45 1016.9
20260503212502 82 105 1.7 5.2 0.00 0.00 0.00 44 1016.9
20260503212002 82 167 2.6 4.3 0.00 0.00 0.00 45 1017.1
20260503211502 82 167 1.7 4.3 0.00 0.00 0.00 42 1017.1
20260503211002 82 167 1.7 4.3 0.00 0.00 0.00 45 1017.1
20260503210502 82 80 1.7 2.6 0.00 0.00 0.00 42 1017.1
20260503210002 83 82 1.7 3.5 0.00 0.00 0.00 43 1017.3
20260503205502 83 82 1.7 3.5 0.00 0.00 0.00 44 1017.3
20260503205002 83 80 2.6 5.2 0.00 0.00 0.00 40 1017.2
20260503204502 83 107 1.7 6.1 0.00 0.00 0.00 39 1017.3
20260503204002 84 111 1.7 5.2 0.00 0.00 0.00 41 1017.4
20260503203502 84 111 1.7 3.5 0.00 0.00 0.00 42 1017.6
20260503203002 84 111 1.7 7.0 0.00 0.00 0.00 41 1017.7
20260503202502 84 44 0.0 4.3 0.00 0.00 0.00 43 1017.7
20260503202002 84 43 0.0 0.0 0.00 0.00 0.00 44 1017.8
20260503201502 83 42 0.9 2.6 0.00 0.00 0.00 39 1017.9
20260503201002 84 44 0.9 3.5 0.00 0.00 0.00 36 1017.9
20260503200502 83 58 0.9 2.6 0.00 0.00 0.00 41 1018.0
20260503200002 83 53 1.7 6.1 0.00 0.00 0.00 42 1018.0
20260503195502 83 36 1.7 4.3 0.00 0.00 0.00 37 1018.1
20260503195002 84 30 0.9 3.5 0.00 0.00 0.00 40 1018.0
20260503194502 84 28 0.9 3.5 0.00 0.00 0.00 41 1018.1
20260503194002 84 28 0.9 3.5 0.00 0.00 0.00 44 1018.1
20260503193502 84 28 0.9 2.6 0.00 0.00 0.00 41 1018.3
20260503193002 84 28 1.7 2.6 0.00 0.00 0.00 44 1018.5